Location: Unspecified
(0.0000°N, 0.0000°E)
Time: 22:31:05
(UTC+00:00)

deb Blok Kosmos - Visible Passes

Search period start: 29 April 2025 00:00
Search period end: 09 May 2025 00:00
Orbit: 1325 x 1606 km, 56.1° (Epoch: 27 April)

Date Brightness Start Highest point End Pass type
(mag) Time Alt. Az. Time Alt. Az. Time Alt. Az.
29 Apr ? 04:54:42 10° N 05:01:27 27° ENE 05:08:01 10° ESE visible
29 Apr ? 19:23:51 10° WSW 19:31:37 28° WNW 19:39:32 10° N visible
30 Apr ? 03:59:42 10° NE 04:01:45 11° NE 04:03:46 10° ENE visible
30 Apr ? 18:22:50 10° SW 18:32:02 55° WNW 18:41:27 10° NNE visible
01 May ? 04:54:54 10° N 05:02:48 44° ENE 05:10:28 10° SE visible
01 May ? 19:27:29 10° W 19:33:05 17° WNW 19:38:47 10° NNW visible
02 May ? 03:57:20 10° NNE 04:03:16 21° ENE 04:09:02 10° ESE visible
02 May ? 18:24:59 10° WSW 18:33:22 35° WNW 18:41:56 10° N visible
03 May ? 04:55:41 10° NNW 05:04:05 72° ENE 05:12:14 10° SE visible
04 May ? 03:57:09 10° N 04:04:40 35° ENE 04:11:55 10° ESE visible
04 May ? 18:27:59 10° WSW 18:34:47 22° WNW 18:41:42 10° N visible
05 May ? 03:00:19 10° NNE 03:05:03 16° NE 03:09:39 10° E visible
05 May ? 04:56:56 10° NW 05:05:20 72° WSW 05:13:29 10° SSE visible
06 May ? 03:57:40 10° NNW 04:05:58 57° ENE 04:13:58 10° SE visible
06 May ? 18:32:55 10° WNW 18:36:19 12° NW 18:39:45 10° NW visible
07 May ? 02:59:32 10° N 03:06:30 28° ENE 03:13:12 10° ESE visible
07 May ? 04:58:43 10° NW 05:06:34 44° WSW 05:14:15 10° S visible
08 May ? 02:04:03 10° NE 02:06:46 12° NE 02:09:26 10° ENE visible
08 May ? 03:58:42 10° NNW 04:07:14 89° SW 04:15:27 10° SSE visible
